VK3BKO-13 Weather Reports


time (UTC)temp
F
wind
direction
speed
knots
gust
knots
rain 1hr
in
rain 24hr
in
rain mn
in
humidity
%
barometer
mb
20260510021704 61 324 0.0 0.9 0.00 0.00 0.00 64 1030.5
20260510020203 62 190 1.7 2.6 0.00 0.00 0.00 63 1030.5
20260510014704 61 322 0.0 0.0 0.00 0.00 0.00 62 1030.8
20260510013204 60 14 1.7 1.7 0.00 0.00 0.00 64 1031.2
20260510011704 60 323 0.0 0.0 0.00 0.00 0.00 65 1031.2
20260510010204 60 306 0.0 0.9 0.00 0.00 0.00 66 1031.2
20260510004703 60 285 0.0 0.9 0.00 0.00 0.00 66 1031.2
20260510003204 59 321 0.0 0.0 0.00 0.00 0.00 68 1031.2
20260510001704 60 252 1.7 1.7 0.00 0.00 0.00 70 1031.2
20260510000204 60 314 0.0 0.0 0.00 0.00 0.00 71 1031.2
20260509234704 59 300 0.0 0.9 0.00 0.00 0.00 77 1031.2
20260509233204 58 317 0.0 0.0 0.00 0.00 0.00 81 1030.8
20260509231704 58 327 0.0 0.0 0.00 0.00 0.00 84 1030.8
20260509230204 57 316 0.0 0.0 0.00 0.00 0.00 87 1030.8
20260509224704 56 326 0.0 0.0 0.00 0.00 0.00 91 1030.5
20260509223204 56 326 0.0 0.0 0.00 0.00 0.00 92 1030.5
20260509221704 55 322 0.0 0.0 0.00 0.00 0.00 93 1030.5
20260509220203 55 324 0.0 0.0 0.00 0.00 0.00 93 1030.2
20260509214704 54 325 0.0 0.0 0.00 0.00 0.00 93 1030.2
20260509213204 54 323 0.9 0.9 0.00 0.00 0.00 93 1029.8
20260509211704 54 320 0.0 0.0 0.00 0.00 0.00 93 1029.8
20260509210204 53 320 0.0 0.0 0.00 0.00 0.00 93 1029.5
20260509204704 53 320 0.0 0.0 0.00 0.00 0.00 93 1029.5
20260509203203 54 320 0.0 0.0 0.00 0.00 0.00 92 1029.2
20260509201704 53 333 0.0 0.0 0.00 0.00 0.00 92 1029.2
20260509200204 53 328 0.0 0.0 0.00 0.00 0.00 92 1029.2
20260509194704 54 315 0.0 0.0 0.00 0.00 0.00 92 1029.2
20260509193204 54 333 0.0 0.0 0.00 0.00 0.00 92 1028.8
20260509191704 54 330 0.0 0.0 0.00 0.00 0.00 93 1028.8
20260509190204 54 328 0.0 0.0 0.00 0.00 0.00 93 1028.5
20260509184704 54 330 0.0 0.0 0.00 0.00 0.00 93 1028.5
20260509183203 54 290 0.9 0.9 0.00 0.00 0.00 94 1028.5
20260509181703 54 317 0.0 0.0 0.00 0.00 0.00 94 1028.5
20260509180204 54 321 0.0 0.0 0.00 0.00 0.00 94 1027.8
20260509174704 54 331 0.0 0.0 0.00 0.00 0.00 94 1028.1
20260509173204 54 330 0.0 0.0 0.00 0.00 0.00 94 1028.1
20260509171704 54 318 0.0 0.0 0.00 0.00 0.00 94 1028.1
20260509170204 53 321 0.0 0.0 0.00 0.00 0.00 94 1028.1
20260509164703 53 318 0.0 0.0 0.00 0.00 0.00 93 1028.1
20260509163203 53 329 0.0 0.0 0.00 0.00 0.00 93 1028.1
20260509161712 0 0.0 0.0 0.00 0.00 0.00
20260509160204 55 329 0.0 0.0 0.00 0.00 0.00 93 1028.1
20260509154704 56 329 0.0 0.0 0.00 0.00 0.00 92 1028.5
20260509153204 56 317 0.0 0.0 0.00 0.00 0.00 92 1028.5
20260509151704 56 317 0.0 0.0 0.00 0.00 0.00 92 1028.5
20260509150204 56 313 0.9 0.9 0.00 0.00 0.00 92 1028.5
20260509144704 56 316 0.0 0.0 0.00 0.00 0.00 92 1028.5
20260509143204 56 316 0.0 0.0 0.00 0.00 0.00 91 1028.5
20260509141704 56 304 0.9 0.9 0.00 0.00 0.00 90 1028.5
20260509140204 56 308 0.9 0.9 0.00 0.00 0.00 90 1028.5
20260509134704 56 317 0.0 0.0 0.00 0.00 0.00 89 1028.5
20260509133205 56 318 0.0 0.0 0.00 0.00 0.00 88 1028.5
20260509131704 57 317 0.0 0.0 0.00 0.00 0.00 88 1028.5
20260509130204 57 308 0.0 0.9 0.00 0.00 0.00 87 1028.5
20260509124704 57 298 0.9 1.7 0.00 0.00 0.00 85 1028.5
20260509123204 57 313 0.0 0.0 0.00 0.00 0.00 86 1028.5
20260509121704 57 313 0.0 0.0 0.00 0.00 0.00 86 1028.5
20260509120204 56 315 0.0 0.0 0.00 0.00 0.00 87 1028.5
20260509114704 56 304 0.0 0.9 0.00 0.00 0.00 89 1028.5
20260509113204 56 327 0.0 0.0 0.00 0.00 0.00 89 1028.1
20260509111705 55 317 0.0 0.0 0.00 0.00 0.00 89 1028.1
20260509110204 55 318 0.0 0.0 0.00 0.00 0.00 89 1028.1
20260509104704 55 318 0.0 0.0 0.00 0.00 0.00 89 1028.1
20260509103204 54 313 0.0 0.0 0.00 0.00 0.00 88 1028.1
20260509101703 54 312 0.0 0.0 0.00 0.00 0.00 89 1028.1
20260509100205 55 314 0.0 0.0 0.00 0.00 0.00 88 1027.8
20260509094704 55 298 0.9 0.9 0.00 0.00 0.00 87 1028.1
20260509093204 56 283 0.9 0.9 0.00 0.00 0.00 87 1028.1
20260509091705 57 307 0.0 0.9 0.00 0.00 0.00 85 1027.8
20260509090203 58 292 0.0 0.9 0.00 0.00 0.00 84 1027.8
20260509084704 58 294 0.9 1.7 0.00 0.00 0.00 83 1027.8
20260509083204 58 306 0.0 0.0 0.00 0.00 0.00 85 1027.5
20260509081704 59 293 0.9 2.6 0.00 0.00 0.00 85 1027.1
20260509080204 59 246 3.5 3.5 0.00 0.00 0.00 86 1027.1
20260509074704 59 275 1.7 2.6 0.00 0.00 0.00 85 1026.8
20260509073204 59 302 0.9 0.9 0.00 0.00 0.00 84 1026.8
20260509071704 59 218 2.6 2.6 0.00 0.00 0.00 83 1026.8
20260509070204 59 296 0.9 1.7 0.00 0.00 0.00 84 1026.4
20260509064704 60 273 3.5 3.5 0.00 0.00 0.00 82 1026.4
20260509063204 60 309 1.7 2.6 0.00 0.00 0.00 81 1026.4
20260509061704 60 315 0.0 0.9 0.00 0.00 0.00 81 1026.4
20260509060203 61 317 0.9 0.9 0.00 0.00 0.00 80 1026.4
20260509054704 61 306 2.6 2.6 0.00 0.00 0.00 79 1026.4
20260509053203 61 326 0.9 0.9 0.00 0.00 0.00 80 1026.4
20260509051703 62 311 1.7 1.7 0.00 0.00 0.00 79 1026.1
20260509050204 62 299 3.5 5.2 0.00 0.00 0.00 78 1026.1
20260509044704 61 294 3.5 5.2 0.00 0.00 0.00 79 1026.4
20260509043204 64 284 1.7 2.6 0.00 0.00 0.00 74 1026.1
20260509041704 64 237 2.6 2.6 0.00 0.00 0.00 74 1026.4
20260509040203 63 279 2.6 3.5 0.00 0.00 0.00 76 1026.1
20260509034703 64 296 2.6 5.2 0.00 0.00 0.00 72 1026.4
20260509033204 63 307 1.7 1.7 0.00 0.00 0.00 74 1026.4
20260509031704 63 252 0.9 1.7 0.00 0.00 0.00 74 1026.4
20260509030203 63 261 2.6 2.6 0.00 0.00 0.00 74 1026.8
20260509024703 62 300 1.7 2.6 0.00 0.00 0.00 76 1026.8
20260509023232 61 283 1.7 1.7 0.00 0.00 0.00 78 1026.8